This is the latest recevied weather packets stored in our database for station/object K1BES. If no packets are shown the sender has not sent any weather packets the latest 10 day(s).
| Time | Temp. | Humidity | Pressure | Rain* | Wind** | Luminosity | Snow |
|---|---|---|---|---|---|---|---|
| 1777479720 | 30° C | 63% | 1019.2 hPa | 0 mm | - | 945 W/m² | - |
| 1777479418 | 30° C | 63% | 1019.5 hPa | 0 mm | - | 936 W/m² | - |
| 1777479114 | 30° C | 64% | 1019.6 hPa | 0 mm | - | 925 W/m² | - |
| 1777478811 | 30° C | 63% | 1019.5 hPa | 0 mm | - | 917 W/m² | - |
| 1777478507 | 29.44° C | 62% | 1019.4 hPa | 0 mm | - | 899 W/m² | - |
| 1777478204 | 29.44° C | 61% | 1019.3 hPa | 0 mm | - | 896 W/m² | - |
| 1777477901 | 29.44° C | 59% | 1019.3 hPa | 0 mm | - | 885 W/m² | - |
| 1777477596 | 30° C | 59% | 1019.5 hPa | 0 mm | - | 865 W/m² | - |
| 1777477293 | 30° C | 59% | 1019.5 hPa | 0 mm | - | 865 W/m² | - |
| 1777476989 | 29.44° C | 59% | 1019.7 hPa | 0 mm | - | 855 W/m² | - |
| 1777476688 | 30° C | 56% | 1019.7 hPa | 0 mm | - | 839 W/m² | - |
| 1777476383 | 30.56° C | 54% | 1019.7 hPa | 0 mm | - | 823 W/m² | - |
| 1777476081 | 30° C | 55% | 1020 hPa | 0 mm | - | 810 W/m² | - |
| 1777475781 | 30° C | 56% | 1020 hPa | 0 mm | - | 805 W/m² | - |
| 1777475478 | 29.44° C | 58% | 1020 hPa | 0 mm | - | 784 W/m² | - |
| 1777475174 | 29.44° C | 59% | 1019.6 hPa | 0 mm | - | 770 W/m² | - |
| 1777474870 | 28.89° C | 63% | 1019.5 hPa | 0 mm | - | 741 W/m² | - |
| 1777474565 | 28.89° C | 62% | 1019.6 hPa | 0 mm | - | 729 W/m² | - |
| 1777474263 | 28.89° C | 66% | 1019.6 hPa | 0 mm | - | 710 W/m² | - |
| 1777473960 | 28.89° C | 63% | 1019.6 hPa | 0 mm | - | 695 W/m² | - |
| 1777473657 | 28.89° C | 60% | 1019.8 hPa | 0 mm | - | 682 W/m² | - |
| 1777473353 | 29.44° C | 60% | 1019.7 hPa | 0 mm | - | 659 W/m² | - |
| 1777473049 | 28.89° C | 62% | 1019.8 hPa | 0 mm | - | 649 W/m² | - |
| 1777472745 | 28.89° C | 63% | 1019.8 hPa | 0 mm | - | 620 W/m² | - |
| 1777472442 | 29.44° C | 62% | 1019.4 hPa | 0 mm | - | 601 W/m² | - |
* Rain latest hour (hover to see other rain measurements)
** Current wind speed in m/s (hover to see current wind gust speed)